Simultaneous Nadir Overpasses (SNOs) Predictions

Prediction of SNOs between METOP-B and NOAA-19 Satellite Orbit:

Table of predicted SNOs for the next 14.0 days since TLE Epoch: 3/11/2016
Index Date (METOP-B) Time (METOP-B) Lat,Lon (METOP-B) SZA (METOP-B ) Date (NOAA-19) Time (NOAA-19) Lat,Lon (NOAA-19) SZA (NOAA-19 ) Distance(km) Time Diff (sec)
1 03/11/2016 17:03:01 -76.33, 105.16 100.40 03/11/2016 17:01:54 -76.33, 101.96 100.35 84.09 67
2 03/11/2016 17:53:51 75.87, -89.06 79.15 03/11/2016 17:52:50 75.87, -89.14 79.15 2.32 61
3 03/11/2016 18:44:33 -75.85, 78.18 100.90 03/11/2016 18:43:45 -75.83, 78.26 100.91 2.77 48
4 03/11/2016 19:35:13 75.85,-114.47 79.10 03/11/2016 19:34:51 75.82,-114.46 79.07 3.95 22
5 03/11/2016 20:25:55 -75.82, 52.77 100.95 03/11/2016 20:25:47 -75.82, 52.79 100.95 0.47 8
6 03/11/2016 21:16:35 75.83,-139.88 79.05 03/11/2016 21:16:53 75.81,-139.94 79.03 2.83 18
7 03/11/2016 22:07:17 -75.80, 27.36 101.00 03/11/2016 22:07:49 -75.81, 27.31 100.98 1.86 32
8 03/11/2016 22:57:57 75.81,-165.29 79.00 03/11/2016 22:58:55 75.80,-165.42 78.99 3.45 58
9 03/11/2016 23:48:39 -75.78, 1.95 101.04 03/11/2016 23:49:50 -75.76, 1.99 101.07 2.50 71
10 03/22/2016 07:17:26 76.20, 71.08 75.29 03/22/2016 07:16:16 76.20, 69.05 75.32 53.72 70
11 03/22/2016 08:08:14 -75.91,-122.57 105.01 03/22/2016 08:07:08 -75.92,-122.68 104.99 3.19 66
12 03/22/2016 08:58:54 75.90, 44.72 74.97 03/22/2016 08:58:11 75.88, 44.70 74.95 2.24 43
13 03/22/2016 09:49:36 -75.89,-147.99 105.06 03/22/2016 09:49:09 -75.87,-148.01 105.08 2.16 27
14 03/22/2016 10:40:16 75.88, 19.31 74.92 03/22/2016 10:40:13 75.87, 19.22 74.92 2.40 3
15 03/22/2016 11:30:58 -75.87,-173.40 105.11 03/22/2016 11:31:11 -75.86,-173.48 105.11 2.29 13
16 03/22/2016 12:21:38 75.86, -6.11 74.87 03/22/2016 12:22:14 75.82, -6.11 74.84 3.73 36
17 03/22/2016 13:12:20 -75.85, 161.18 105.16 03/22/2016 13:13:12 -75.81, 161.19 105.20 3.83 52
18 03/22/2016 14:03:02 75.74, -31.82 74.73 03/22/2016 14:04:15 75.77, -31.43 74.75 11.26 73




NCC Satellite Simultaneous Nadir Overpasses (
